Change the Weather History Date:

Wednesday, January 23, 2013

  Actual Average Record
Temperature  
Mean Temperature 14 °F -  
Max Temperature 19 °F 35 °F 59 °F (1967)
Min Temperature 8 °F 19 °F -15 °F (1963)
Degree Days  
Heating Degree Days 52    
Moisture  
Dew Point 7 °F    
Average Humidity 68    
Maximum Humidity 86    
Minimum Humidity 49    
Precipitation  
Precipitation 0.00 in - - ()
Sea Level Pressure  
Sea Level Pressure 30.18 in    
Wind  
Wind Speed 12 mph (WSW)    
Max Wind Speed 18 mph    
Max Gust Speed 28 mph    
Visibility 6 miles    
Events Snow    
Averages and records for this station are not official NWS values.
T = Trace of Precipitation, MM = Missing Value Source: NWS Daily Summary

Daily Weather History Graph

Daily Weather History Graph

Search for Another Location

Airport or City:

Trip Planner

Search our weather history database for the weather conditions in past years. The results will help you decide how hot, cold, wet, or windy it might be!

Date:

Astronomy

Jan. 23, 2013 Rise Set
Actual Time 8:02 AM EST 5:48 PM EST
Civil Twilight 7:32 AM EST 6:18 PM EST
Nautical Twilight 6:58 AM EST 6:51 PM EST
Astronomical Twilight 6:25 AM EST 7:24 PM EST
Moon 2:57 PM EST (1/23) 5:14 AM EST (1/23)
Length of Visible Light 10h 45m
Length of Day
9h 45m
Waxing Gibbous, 89% of the Moon is Illuminated
Jan 23
Waxing Gibbous
Jan 26
Full
Feb 3
Last Quarter
Feb 10
New
Feb 17
First Quarter

Hourly Weather History & Observations

Time (EST) Temp. Windchill Dew Point Humidity Pressure Visibility Wind Dir Wind Speed Gust Speed Precip Events Conditions
12:53 AM 9.0 °F -6.6 °F -2.0 °F 61% 30.34 in 10.0 mi West 12.7 mph - N/A   Scattered Clouds
1:53 AM 8.1 °F -6.2 °F -2.0 °F 64% 30.33 in 10.0 mi WSW 10.4 mph - N/A   Mostly Cloudy
2:53 AM 9.0 °F -4.2 °F -2.0 °F 61% 30.32 in 10.0 mi WSW 9.2 mph - N/A   Clear
3:53 AM 8.1 °F -6.2 °F -2.0 °F 64% 30.33 in 10.0 mi WSW 10.4 mph - N/A   Clear
4:53 AM 10.0 °F -3.7 °F -0.9 °F 61% 30.31 in 10.0 mi WSW 10.4 mph - N/A   Overcast
5:53 AM 10.9 °F -3.4 °F -0.9 °F 59% 30.31 in 10.0 mi WSW 11.5 mph - N/A   Overcast
6:53 AM 10.9 °F -3.4 °F -0.9 °F 59% 30.31 in 10.0 mi WSW 11.5 mph - N/A   Overcast
7:53 AM 10.9 °F -3.4 °F -0.9 °F 59% 30.30 in 10.0 mi SW 11.5 mph - N/A   Overcast
8:53 AM 12.0 °F -0.4 °F -0.9 °F 56% 30.30 in 10.0 mi SW 9.2 mph - N/A   Overcast
9:53 AM 14.0 °F -0.2 °F -0.0 °F 54% 30.30 in 10.0 mi SW 12.7 mph - N/A   Overcast
10:53 AM 15.1 °F -0.1 °F 1.0 °F 54% 30.29 in 10.0 mi WSW 15.0 mph - N/A   Overcast
11:53 AM 16.0 °F 2.3 °F -0.0 °F 49% 30.28 in 10.0 mi SW 12.7 mph - N/A   Overcast
12:53 PM 17.1 °F 3.0 °F 1.0 °F 50% 30.24 in 10.0 mi SW 13.8 mph - N/A   Overcast
1:53 PM 17.1 °F 2.5 °F 3.0 °F 54% 30.19 in 10.0 mi SW 15.0 mph - N/A   Overcast
2:53 PM 18.0 °F 5.4 °F 3.0 °F 52% 30.17 in 10.0 mi WSW 11.5 mph - N/A   Overcast
3:53 PM 18.0 °F 5.4 °F 6.1 °F 60% 30.16 in 10.0 mi WSW 11.5 mph - N/A   Overcast
4:53 PM 18.0 °F 6.9 °F 8.1 °F 65% 30.14 in 5.0 mi WSW 9.2 mph - 0.00 in Snow Light Snow
5:18 PM 17.6 °F 5.7 °F 8.6 °F 68% 30.09 in 2.5 mi SW 10.4 mph - 0.00 in Snow Light Snow
5:27 PM 17.6 °F 5.0 °F 8.6 °F 68% 30.09 in 3.0 mi SW 11.5 mph - 0.00 in Snow Light Snow
5:34 PM 17.6 °F 7.3 °F 8.6 °F 68% 30.09 in 3.0 mi SW 8.1 mph - 0.00 in Snow Light Snow
5:53 PM 17.1 °F 5.8 °F 10.0 °F 74% 30.13 in 2.0 mi SW 9.2 mph - 0.00 in Snow Light Snow
6:07 PM 17.6 °F 7.3 °F 10.4 °F 73% 30.08 in 3.0 mi SW 8.1 mph - 0.00 in Snow Light Snow
6:53 PM 17.1 °F 6.6 °F 12.0 °F 81% 30.12 in 9.0 mi SW 8.1 mph - 0.00 in   Overcast
7:53 PM 18.0 °F 4.8 °F 10.9 °F 74% 30.11 in 4.0 mi WSW 12.7 mph - 0.00 in Snow Light Snow
8:53 PM 18.0 °F 6.1 °F 12.0 °F 78% 30.11 in 8.0 mi WSW 10.4 mph - 0.00 in   Overcast
9:11 PM 19.4 °F 5.5 °F 12.2 °F 74% 30.07 in 4.0 mi West 15.0 mph 23.0 mph 0.00 in Snow Light Snow
9:26 PM 19.4 °F 4.1 °F 12.2 °F 74% 30.07 in 2.5 mi West 18.4 mph 24.2 mph 0.00 in Snow Light Snow
9:33 PM 19.4 °F 5.5 °F 12.2 °F 74% 30.07 in 1.8 mi West 15.0 mph 24.2 mph 0.00 in Snow Light Snow
9:53 PM 19.0 °F 4.5 °F 14.0 °F 81% 30.12 in 1.8 mi West 16.1 mph 24.2 mph 0.00 in Snow Light Snow
10:14 PM 19.4 °F 5.5 °F 15.8 °F 86% 30.08 in 0.8 mi West 15.0 mph - 0.00 in Snow Light Snow
10:18 PM 19.4 °F 5.5 °F 15.8 °F 86% 30.08 in 1.0 mi West 15.0 mph - 0.00 in Snow Light Snow
10:30 PM 19.4 °F 6.0 °F 14.0 °F 80% 30.08 in 2.0 mi WNW 13.8 mph - 0.00 in Snow Light Snow
10:53 PM 19.0 °F 5.6 °F 14.0 °F 81% 30.13 in 2.0 mi WNW 13.8 mph - 0.00 in Snow Light Snow
11:02 PM 19.4 °F 5.5 °F 14.0 °F 80% 30.09 in 1.2 mi NW 15.0 mph - 0.00 in Snow Light Snow
11:07 PM 19.4 °F 4.5 °F 14.0 °F 80% 30.10 in 0.8 mi NW 17.3 mph 24.2 mph 0.00 in Snow Light Snow
11:15 PM 19.4 °F 5.0 °F 14.0 °F 80% 30.10 in 1.0 mi NW 16.1 mph 27.6 mph 0.00 in Snow Light Snow